Data supplied by UK-AIR on 8/5/2020
All Data GMT hour ending 
Status: R =Ratified P=Provisional,P*=As supplied
,,Ballymena Ballykeel,,,,,,,,,,,,,,,,,,,,,,,
Date,time,"Nitric oxide",status,unit,"Nitrogen dioxide",status,unit,"Nitrogen oxides as nitrogen dioxide",status,unit,"Sulphur dioxide",status,unit,"Black carbon",status,unit,"UV Particulate Matter",status,unit
 
01-01-2019,01:00,0.78907,R,ugm-3,2.60104,R,ugm-3,3.81093,R,ugm-3,1.41221,R,ugm-3,1.30,R,ugm-3,0.00,R,ugm-3
01-01-2019,02:00,0.19129,R,ugm-3,2.32430,R,ugm-3,2.61761,R,ugm-3,1.52990,R,ugm-3,0.20,R,ugm-3,0.20,R,ugm-3
01-01-2019,03:00,0.32280,R,ugm-3,2.44986,R,ugm-3,2.94481,R,ugm-3,1.47106,R,ugm-3,0.20,R,ugm-3,0.10,R,ugm-3
01-01-2019,04:00,0.53800,R,ugm-3,1.48473,R,ugm-3,2.30966,R,ugm-3,0.94147,R,ugm-3,0.00,R,ugm-3,0.10,R,ugm-3
01-01-2019,05:00,0.32280,R,ugm-3,0.60213,R,ugm-3,1.09709,R,ugm-3,0.94147,R,ugm-3,0.00,R,ugm-3,0.00,R,ugm-3
01-01-2019,06:00,0.28694,R,ugm-3,0.83035,R,ugm-3,1.27031,R,ugm-3,1.11800,R,ugm-3,0.00,R,ugm-3,0.00,R,ugm-3
01-01-2019,07:00,0.43040,R,ugm-3,1.47649,R,ugm-3,2.13643,R,ugm-3,0.58842,R,ugm-3,0.00,R,ugm-3,0.00,R,ugm-3
01-01-2019,08:00,0.64561,R,ugm-3,2.64780,R,ugm-3,3.63771,R,ugm-3,0.70611,R,ugm-3,0.00,R,ugm-3,0.00,R,ugm-3
01-01-2019,09:00,2.58242,R,ugm-3,21.44656,R,ugm-3,25.40622,R,ugm-3,0.52958,R,ugm-3,0.40,R,ugm-3,-0.10,R,ugm-3
01-01-2019,10:00,5.88218,R,ugm-3,29.66752,R,ugm-3,38.68675,R,ugm-3,0.64726,R,ugm-3,1.00,R,ugm-3,2.60,R,ugm-3
01-01-2019,11:00,15.45867,R,ugm-3,41.60258,R,ugm-3,65.30554,R,ugm-3,1.64758,R,ugm-3,1.90,R,ugm-3,2.10,R,ugm-3
01-01-2019,12:00,11.40570,R,ugm-3,43.65966,R,ugm-3,61.14816,R,ugm-3,1.64758,R,ugm-3,1.70,R,ugm-3,1.50,R,ugm-3
01-01-2019,13:00,3.69430,R,ugm-3,24.24554,R,ugm-3,29.91005,R,ugm-3,1.70643,R,ugm-3,1.00,R,ugm-3,0.30,R,ugm-3
01-01-2019,14:00,1.04014,R,ugm-3,5.10314,R,ugm-3,6.69800,R,ugm-3,1.23569,R,ugm-3,0.20,R,ugm-3,0.10,R,ugm-3
01-01-2019,15:00,1.11188,R,ugm-3,9.03505,R,ugm-3,10.73990,R,ugm-3,1.11800,R,ugm-3,0.20,R,ugm-3,0.00,R,ugm-3
01-01-2019,16:00,1.61401,R,ugm-3,9.76639,R,ugm-3,12.24118,R,ugm-3,1.00032,R,ugm-3,0.20,R,ugm-3,0.10,R,ugm-3
01-01-2019,17:00,11.62090,R,ugm-3,55.33991,R,ugm-3,73.15837,R,ugm-3,1.23569,R,ugm-3,1.90,R,ugm-3,0.40,R,ugm-3
01-01-2019,18:00,38.73633,R,ugm-3,73.75682,R,ugm-3,133.15170,R,ugm-3,1.76527,R,ugm-3,2.60,R,ugm-3,2.00,R,ugm-3
01-01-2019,19:00,50.57243,R,ugm-3,77.55012,R,ugm-3,155.09343,R,ugm-3,2.64790,R,ugm-3,3.20,R,ugm-3,1.40,R,ugm-3
01-01-2019,20:00,38.59286,R,ugm-3,55.44180,R,ugm-3,114.61670,R,ugm-3,2.17716,R,ugm-3,2.50,R,ugm-3,3.00,R,ugm-3
01-01-2019,21:00,55.19927,R,ugm-3,60.12002,R,ugm-3,144.75772,R,ugm-3,2.88327,R,ugm-3,3.50,R,ugm-3,3.20,R,ugm-3
01-01-2019,22:00,27.83277,R,ugm-3,41.39518,R,ugm-3,84.07150,R,ugm-3,2.17716,R,ugm-3,2.30,R,ugm-3,1.40,R,ugm-3
01-01-2019,23:00,18.14869,R,ugm-3,32.97411,R,ugm-3,60.80171,R,ugm-3,2.11832,R,ugm-3,2.20,R,ugm-3,1.80,R,ugm-3
01-01-2019,24:00,9.68408,R,ugm-3,22.56771,R,ugm-3,37.41644,R,ugm-3,1.72604,R,ugm-3,1.60,R,ugm-3,1.70,R,ugm-3
02-01-2019,01:00,2.18907,R,ugm-3,19.92490,R,ugm-3,23.28143,R,ugm-3,0.11755,R,ugm-3,1.80,R,ugm-3,2.00,R,ugm-3
02-01-2019,02:00,1.62685,R,ugm-3,16.91635,R,ugm-3,19.41082,R,ugm-3,0.52899,R,ugm-3,1.60,R,ugm-3,1.90,R,ugm-3
02-01-2019,03:00,0.89716,R,ugm-3,8.84972,R,ugm-3,10.22534,R,ugm-3,0.47021,R,ugm-3,0.60,R,ugm-3,0.40,R,ugm-3
02-01-2019,04:00,0.68184,R,ugm-3,7.38899,R,ugm-3,8.43446,R,ugm-3,0.29388,R,ugm-3,0.10,R,ugm-3,-0.10,R,ugm-3
02-01-2019,05:00,1.36368,R,ugm-3,8.30770,R,ugm-3,10.39865,R,ugm-3,0.52899,R,ugm-3,0.10,R,ugm-3,-0.10,R,ugm-3
02-01-2019,06:00,1.47134,R,ugm-3,8.83587,R,ugm-3,11.09189,R,ugm-3,0.64654,R,ugm-3,0.20,R,ugm-3,-0.10,R,ugm-3
02-01-2019,07:00,3.62452,R,ugm-3,12.29350,R,ugm-3,17.85102,R,ugm-3,0.23511,R,ugm-3,0.20,R,ugm-3,-0.10,R,ugm-3
02-01-2019,08:00,5.23941,R,ugm-3,15.88325,R,ugm-3,23.91690,R,ugm-3,0.29388,R,ugm-3,0.30,R,ugm-3,0.00,R,ugm-3
02-01-2019,09:00,6.42366,R,ugm-3,20.99986,R,ugm-3,30.84933,R,ugm-3,0.47021,R,ugm-3,0.40,R,ugm-3,-0.10,R,ugm-3
02-01-2019,10:00,5.56238,R,ugm-3,22.32046,R,ugm-3,30.84933,R,ugm-3,0.41144,R,ugm-3,0.30,R,ugm-3,0.00,R,ugm-3
02-01-2019,11:00,7.42847,R,ugm-3,24.71626,R,ugm-3,36.10643,R,ugm-3,0.58776,R,ugm-3,0.40,R,ugm-3,0.00,R,ugm-3
02-01-2019,12:00,7.21316,R,ugm-3,23.13999,R,ugm-3,34.20001,R,ugm-3,0.52899,R,ugm-3,0.40,R,ugm-3,0.20,R,ugm-3
02-01-2019,13:00,12.34490,R,ugm-3,36.24203,R,ugm-3,55.17062,R,ugm-3,0.47021,R,ugm-3,0.70,R,ugm-3,0.10,R,ugm-3
02-01-2019,14:00,9.00747,R,ugm-3,32.92489,R,ugm-3,46.73616,R,ugm-3,0.17633,R,ugm-3,0.70,R,ugm-3,0.10,R,ugm-3
02-01-2019,15:00,7.82322,R,ugm-3,30.92788,R,ugm-3,42.92332,R,ugm-3,0.41144,R,ugm-3,0.60,R,ugm-3,0.10,R,ugm-3
02-01-2019,16:00,17.04601,R,ugm-3,54.74154,R,ugm-3,80.87840,R,ugm-3,0.58776,R,ugm-3,1.20,R,ugm-3,0.30,R,ugm-3
02-01-2019,17:00,20.23990,R,ugm-3,63.82473,R,ugm-3,94.85880,R,ugm-3,0.99920,R,ugm-3,1.70,R,ugm-3,0.30,R,ugm-3
02-01-2019,18:00,12.99086,R,ugm-3,56.97321,R,ugm-3,76.89225,R,ugm-3,0.88165,R,ugm-3,1.50,R,ugm-3,0.60,R,ugm-3
02-01-2019,19:00,6.71075,R,ugm-3,35.17554,R,ugm-3,45.46521,R,ugm-3,0.58776,R,ugm-3,1.30,R,ugm-3,0.40,R,ugm-3
02-01-2019,20:00,4.55757,R,ugm-3,30.38920,R,ugm-3,37.37737,R,ugm-3,0.52899,R,ugm-3,1.00,R,ugm-3,0.50,R,ugm-3
02-01-2019,21:00,3.55275,R,ugm-3,26.55727,R,ugm-3,32.00474,R,ugm-3,0.52899,R,ugm-3,1.00,R,ugm-3,0.50,R,ugm-3
02-01-2019,22:00,1.79432,R,ugm-3,23.30315,R,ugm-3,26.05440,R,ugm-3,0.64654,R,ugm-3,1.10,R,ugm-3,1.00,R,ugm-3
02-01-2019,23:00,1.93786,R,ugm-3,24.93170,R,ugm-3,27.90305,R,ugm-3,0.17633,R,ugm-3,1.10,R,ugm-3,0.50,R,ugm-3
02-01-2019,24:00,2.29673,R,ugm-3,24.61253,R,ugm-3,28.13413,R,ugm-3,0.15674,R,ugm-3,0.90,R,ugm-3,0.50,R,ugm-3
03-01-2019,01:00,0.68221,R,ugm-3,12.76796,R,ugm-3,13.81400,R,ugm-3,0.17613,R,ugm-3,0.70,R,ugm-3,0.60,R,ugm-3
03-01-2019,02:00,0.76599,R,ugm-3,10.69359,R,ugm-3,11.86809,R,ugm-3,0.17613,R,ugm-3,0.70,R,ugm-3,0.40,R,ugm-3
03-01-2019,03:00,1.72347,R,ugm-3,15.15952,R,ugm-3,17.80214,R,ugm-3,0.35226,R,ugm-3,0.50,R,ugm-3,0.40,R,ugm-3
03-01-2019,04:00,0.75402,R,ugm-3,10.57708,R,ugm-3,11.73323,R,ugm-3,0.35226,R,ugm-3,0.30,R,ugm-3,0.20,R,ugm-3
03-01-2019,05:00,0.68221,R,ugm-3,8.02843,R,ugm-3,9.07447,R,ugm-3,0.35226,R,ugm-3,0.30,R,ugm-3,0.20,R,ugm-3
03-01-2019,06:00,1.75938,R,ugm-3,13.37049,R,ugm-3,16.06817,R,ugm-3,0.64582,R,ugm-3,0.40,R,ugm-3,0.10,R,ugm-3
03-01-2019,07:00,5.34995,R,ugm-3,28.21032,R,ugm-3,36.41347,R,ugm-3,0.35226,R,ugm-3,0.60,R,ugm-3,0.20,R,ugm-3
03-01-2019,08:00,9.94588,R,ugm-3,39.13886,R,ugm-3,54.38900,R,ugm-3,0.35226,R,ugm-3,0.80,R,ugm-3,0.10,R,ugm-3
03-01-2019,09:00,15.65489,R,ugm-3,53.38923,R,ugm-3,77.39307,R,ugm-3,0.29355,R,ugm-3,1.20,R,ugm-3,0.20,R,ugm-3
03-01-2019,10:00,29.94537,R,ugm-3,62.05323,R,ugm-3,107.96882,R,ugm-3,0.58711,R,ugm-3,1.60,R,ugm-3,0.40,R,ugm-3
03-01-2019,11:00,25.13400,R,ugm-3,56.59914,R,ugm-3,95.13740,R,ugm-3,0.58711,R,ugm-3,2.30,R,ugm-3,1.40,R,ugm-3
03-01-2019,12:00,20.53807,R,ugm-3,56.82584,R,ugm-3,88.31710,R,ugm-3,0.88066,R,ugm-3,1.30,R,ugm-3,1.00,R,ugm-3
03-01-2019,13:00,15.43946,R,ugm-3,44.87629,R,ugm-3,68.54980,R,ugm-3,1.17422,R,ugm-3,1.10,R,ugm-3,0.20,R,ugm-3
03-01-2019,14:00,12.78244,R,ugm-3,38.43089,R,ugm-3,58.03035,R,ugm-3,0.93937,R,ugm-3,1.40,R,ugm-3,0.20,R,ugm-3
03-01-2019,15:00,14.39819,R,ugm-3,48.43805,R,ugm-3,70.51497,R,ugm-3,1.35035,R,ugm-3,1.20,R,ugm-3,0.20,R,ugm-3
03-01-2019,16:00,4.52412,R,ugm-3,41.09421,R,ugm-3,48.03110,R,ugm-3,1.17422,R,ugm-3,2.50,R,ugm-3,2.60,R,ugm-3
03-01-2019,17:00,49.76532,R,ugm-3,79.40515,R,ugm-3,155.71092,R,ugm-3,2.05488,R,ugm-3,3.00,R,ugm-3,0.70,R,ugm-3
03-01-2019,18:00,29.37088,R,ugm-3,68.82962,R,ugm-3,113.86433,R,ugm-3,1.70261,R,ugm-3,2.90,R,ugm-3,0.90,R,ugm-3
03-01-2019,19:00,24.95447,R,ugm-3,64.79290,R,ugm-3,103.05589,R,ugm-3,1.11551,R,ugm-3,2.50,R,ugm-3,1.00,R,ugm-3
03-01-2019,20:00,11.34621,R,ugm-3,48.43596,R,ugm-3,65.83323,R,ugm-3,1.29164,R,ugm-3,2.30,R,ugm-3,1.00,R,ugm-3
03-01-2019,21:00,4.63184,R,ugm-3,37.92349,R,ugm-3,45.02554,R,ugm-3,0.70453,R,ugm-3,1.70,R,ugm-3,0.90,R,ugm-3
03-01-2019,22:00,4.16506,R,ugm-3,36.38503,R,ugm-3,42.77137,R,ugm-3,0.82195,R,ugm-3,1.90,R,ugm-3,1.10,R,ugm-3
03-01-2019,23:00,2.19025,R,ugm-3,25.36784,R,ugm-3,28.72618,R,ugm-3,0.64582,R,ugm-3,1.70,R,ugm-3,1.20,R,ugm-3
03-01-2019,24:00,1.18489,R,ugm-3,18.47070,R,ugm-3,20.28750,R,ugm-3,0.46969,R,ugm-3,1.30,R,ugm-3,1.00,R,ugm-3
04-01-2019,01:00,0.86220,R,ugm-3,14.25299,R,ugm-3,15.57501,R,ugm-3,0.29323,R,ugm-3,1.20,R,ugm-3,0.70,R,ugm-3
04-01-2019,02:00,0.76640,R,ugm-3,10.85310,R,ugm-3,12.02823,R,ugm-3,1.17290,R,ugm-3,1.00,R,ugm-3,0.60,R,ugm-3
04-01-2019,03:00,0.35925,R,ugm-3,12.28698,R,ugm-3,12.83782,R,ugm-3,0.64510,R,ugm-3,0.80,R,ugm-3,0.50,R,ugm-3
04-01-2019,04:00,0.89813,R,ugm-3,10.18850,R,ugm-3,11.56561,R,ugm-3,0.35187,R,ugm-3,0.70,R,ugm-3,0.40,R,ugm-3
04-01-2019,05:00,0.50295,R,ugm-3,9.00176,R,ugm-3,9.77294,R,ugm-3,0.82103,R,ugm-3,0.70,R,ugm-3,0.30,R,ugm-3
04-01-2019,06:00,1.47293,R,ugm-3,16.07303,R,ugm-3,18.33148,R,ugm-3,0.82103,R,ugm-3,0.60,R,ugm-3,0.30,R,ugm-3
04-01-2019,07:00,18.10624,R,ugm-3,47.06694,R,ugm-3,74.82946,R,ugm-3,1.05561,R,ugm-3,1.20,R,ugm-3,0.40,R,ugm-3
04-01-2019,08:00,2.80216,R,ugm-3,35.43127,R,ugm-3,39.72785,R,ugm-3,1.17290,R,ugm-3,0.70,R,ugm-3,0.30,R,ugm-3
04-01-2019,09:00,3.34103,R,ugm-3,40.73478,R,ugm-3,45.85762,R,ugm-3,0.99697,R,ugm-3,2.60,R,ugm-3,1.90,R,ugm-3
04-01-2019,10:00,2.90993,R,ugm-3,37.11652,R,ugm-3,41.57835,R,ugm-3,1.46613,R,ugm-3,1.10,R,ugm-3,0.70,R,ugm-3
04-01-2019,11:00,2.37106,R,ugm-3,27.12894,R,ugm-3,30.76451,R,ugm-3,1.34883,R,ugm-3,0.60,R,ugm-3,1.40,R,ugm-3
04-01-2019,12:00,2.19143,R,ugm-3,22.66246,R,ugm-3,26.02261,R,ugm-3,1.40748,R,ugm-3,1.00,R,ugm-3,1.50,R,ugm-3
04-01-2019,13:00,2.11958,R,ugm-3,21.84738,R,ugm-3,25.09736,R,ugm-3,1.46613,R,ugm-3,1.30,R,ugm-3,1.50,R,ugm-3
04-01-2019,14:00,2.08366,R,ugm-3,17.68102,R,ugm-3,20.87592,R,ugm-3,1.75935,R,ugm-3,1.00,R,ugm-3,0.80,R,ugm-3
04-01-2019,15:00,3.34103,R,ugm-3,18.81796,R,ugm-3,23.94080,R,ugm-3,1.93529,R,ugm-3,1.10,R,ugm-3,1.10,R,ugm-3
04-01-2019,16:00,4.45471,R,ugm-3,28.84943,R,ugm-3,35.67989,R,ugm-3,2.16987,R,ugm-3,1.40,R,ugm-3,1.70,R,ugm-3
04-01-2019,17:00,2.33513,R,ugm-3,25.16004,R,ugm-3,28.74053,R,ugm-3,2.69767,R,ugm-3,2.70,R,ugm-3,2.50,R,ugm-3
04-01-2019,18:00,2.04773,R,ugm-3,27.68253,R,ugm-3,30.82234,R,ugm-3,3.51870,R,ugm-3,1.80,R,ugm-3,1.70,R,ugm-3
04-01-2019,19:00,4.59841,R,ugm-3,36.66719,R,ugm-3,43.71799,R,ugm-3,3.81193,R,ugm-3,1.30,R,ugm-3,1.00,R,ugm-3
04-01-2019,20:00,3.70028,R,ugm-3,37.63950,R,ugm-3,43.31319,R,ugm-3,4.10515,R,ugm-3,2.30,R,ugm-3,2.10,R,ugm-3
04-01-2019,21:00,4.52656,R,ugm-3,42.21319,R,ugm-3,49.15382,R,ugm-3,4.45702,R,ugm-3,1.40,R,ugm-3,0.70,R,ugm-3
04-01-2019,22:00,1.22145,R,ugm-3,24.55454,R,ugm-3,26.42741,R,ugm-3,4.45702,R,ugm-3,0.70,R,ugm-3,0.60,R,ugm-3
04-01-2019,23:00,4.13139,R,ugm-3,35.18582,R,ugm-3,41.52052,R,ugm-3,7.85843,R,ugm-3,1.10,R,ugm-3,1.70,R,ugm-3
04-01-2019,24:00,2.11958,R,ugm-3,26.76277,R,ugm-3,30.01274,R,ugm-3,9.14862,R,ugm-3,0.80,R,ugm-3,0.40,R,ugm-3
05-01-2019,01:00,0.97050,R,ugm-3,17.02613,R,ugm-3,18.51421,R,ugm-3,5.91651,R,ugm-3,0.60,R,ugm-3,0.30,R,ugm-3
05-01-2019,02:00,0.47926,R,ugm-3,9.91081,R,ugm-3,10.64567,R,ugm-3,4.39345,R,ugm-3,0.70,R,ugm-3,0.50,R,ugm-3
05-01-2019,03:00,0.35944,R,ugm-3,11.42524,R,ugm-3,11.97638,R,ugm-3,3.74908,R,ugm-3,0.60,R,ugm-3,0.30,R,ugm-3
05-01-2019,04:00,0.75483,R,ugm-3,11.05041,R,ugm-3,12.20781,R,ugm-3,2.51891,R,ugm-3,0.40,R,ugm-3,0.20,R,ugm-3
05-01-2019,05:00,0.79078,R,ugm-3,11.68958,R,ugm-3,12.90209,R,ugm-3,1.64022,R,ugm-3,0.40,R,ugm-3,0.20,R,ugm-3
05-01-2019,06:00,1.25806,R,ugm-3,11.89880,R,ugm-3,13.82780,R,ugm-3,2.10885,R,ugm-3,0.40,R,ugm-3,0.20,R,ugm-3
05-01-2019,07:00,0.61106,R,ugm-3,8.72516,R,ugm-3,9.66210,R,ugm-3,1.28874,R,ugm-3,0.30,R,ugm-3,0.20,R,ugm-3
05-01-2019,08:00,0.64700,R,ugm-3,7.51291,R,ugm-3,8.50496,R,ugm-3,1.05443,R,ugm-3,0.30,R,ugm-3,0.10,R,ugm-3
05-01-2019,09:00,0.82672,R,ugm-3,9.32019,R,ugm-3,10.58781,R,ugm-3,0.29290,R,ugm-3,0.30,R,ugm-3,0.10,R,ugm-3
05-01-2019,10:00,1.25806,R,ugm-3,14.09737,R,ugm-3,16.02636,R,ugm-3,0.52722,R,ugm-3,0.90,R,ugm-3,1.30,R,ugm-3
05-01-2019,11:00,2.12072,R,ugm-3,23.94101,R,ugm-3,27.19274,R,ugm-3,1.64022,R,ugm-3,1.00,R,ugm-3,0.70,R,ugm-3
05-01-2019,12:00,1.83317,R,ugm-3,17.32338,R,ugm-3,20.13420,R,ugm-3,1.17159,R,ugm-3,0.60,R,ugm-3,0.60,R,ugm-3
05-01-2019,13:00,2.91150,R,ugm-3,16.94281,R,ugm-3,21.40705,R,ugm-3,1.75738,R,ugm-3,1.80,R,ugm-3,1.10,R,ugm-3
05-01-2019,14:00,2.08478,R,ugm-3,17.45830,R,ugm-3,20.65491,R,ugm-3,1.64022,R,ugm-3,1.20,R,ugm-3,1.30,R,ugm-3
05-01-2019,15:00,1.61750,R,ugm-3,14.47194,R,ugm-3,16.95207,R,ugm-3,1.40590,R,ugm-3,1.50,R,ugm-3,1.90,R,ugm-3
05-01-2019,16:00,2.76772,R,ugm-3,25.84180,R,ugm-3,30.08559,R,ugm-3,2.22601,R,ugm-3,2.30,R,ugm-3,2.10,R,ugm-3
05-01-2019,17:00,3.09122,R,ugm-3,27.71791,R,ugm-3,32.45772,R,ugm-3,2.69465,R,ugm-3,6.40,R,ugm-3,4.20,R,ugm-3
05-01-2019,18:00,2.55206,R,ugm-3,32.59460,R,ugm-3,36.50770,R,ugm-3,2.98754,R,ugm-3,3.40,R,ugm-3,2.90,R,ugm-3
05-01-2019,19:00,3.91795,R,ugm-3,26.97100,R,ugm-3,32.97843,R,ugm-3,3.04612,R,ugm-3,5.80,R,ugm-3,4.10,R,ugm-3
05-01-2019,20:00,3.16311,R,ugm-3,28.35982,R,ugm-3,33.20986,R,ugm-3,3.51476,R,ugm-3,3.00,R,ugm-3,1.80,R,ugm-3
05-01-2019,21:00,3.09122,R,ugm-3,22.22150,R,ugm-3,26.96131,R,ugm-3,3.10470,R,ugm-3,2.00,R,ugm-3,1.90,R,ugm-3
05-01-2019,22:00,1.72533,R,ugm-3,18.18301,R,ugm-3,20.82848,R,ugm-3,3.45618,R,ugm-3,2.10,R,ugm-3,1.70,R,ugm-3
05-01-2019,23:00,1.18617,R,ugm-3,14.26545,R,ugm-3,16.08422,R,ugm-3,3.51476,R,ugm-3,1.90,R,ugm-3,2.00,R,ugm-3
05-01-2019,24:00,1.50967,R,ugm-3,14.23228,R,ugm-3,16.54707,R,ugm-3,7.10762,R,ugm-3,1.90,R,ugm-3,5.00,R,ugm-3
06-01-2019,01:00,1.51048,R,ugm-3,11.28712,R,ugm-3,13.60315,R,ugm-3,6.26095,R,ugm-3,1.30,R,ugm-3,2.00,R,ugm-3
06-01-2019,02:00,0.62337,R,ugm-3,7.22536,R,ugm-3,8.18119,R,ugm-3,4.50554,R,ugm-3,1.00,R,ugm-3,0.80,R,ugm-3
06-01-2019,03:00,0.50349,R,ugm-3,6.11639,R,ugm-3,6.88841,R,ugm-3,3.21824,R,ugm-3,0.80,R,ugm-3,0.50,R,ugm-3
06-01-2019,04:00,0.61139,R,ugm-3,5.89308,R,ugm-3,6.83052,R,ugm-3,1.87243,R,ugm-3,0.70,R,ugm-3,0.70,R,ugm-3
06-01-2019,05:00,0.64735,R,ugm-3,5.54850,R,ugm-3,6.54109,R,ugm-3,1.40433,R,ugm-3,0.60,R,ugm-3,0.40,R,ugm-3
06-01-2019,06:00,1.04295,R,ugm-3,6.04175,R,ugm-3,7.64092,R,ugm-3,1.75541,R,ugm-3,0.60,R,ugm-3,0.30,R,ugm-3
06-01-2019,07:00,1.36663,R,ugm-3,7.33992,R,ugm-3,9.43538,R,ugm-3,1.52135,R,ugm-3,0.60,R,ugm-3,0.30,R,ugm-3
06-01-2019,08:00,1.00699,R,ugm-3,8.52810,R,ugm-3,10.07212,R,ugm-3,1.63838,R,ugm-3,0.70,R,ugm-3,0.20,R,ugm-3
06-01-2019,09:00,1.33066,R,ugm-3,12.25747,R,ugm-3,14.29778,R,ugm-3,1.34581,R,ugm-3,0.50,R,ugm-3,0.30,R,ugm-3
06-01-2019,10:00,1.72626,R,ugm-3,10.37740,R,ugm-3,13.02430,R,ugm-3,1.81392,R,ugm-3,0.80,R,ugm-3,1.30,R,ugm-3
06-01-2019,11:00,2.51747,R,ugm-3,14.02664,R,ugm-3,17.88670,R,ugm-3,1.93095,R,ugm-3,1.20,R,ugm-3,1.00,R,ugm-3
06-01-2019,12:00,2.51747,R,ugm-3,14.25818,R,ugm-3,18.11825,R,ugm-3,1.46284,R,ugm-3,1.10,R,ugm-3,0.80,R,ugm-3
06-01-2019,13:00,1.76223,R,ugm-3,10.78534,R,ugm-3,13.48738,R,ugm-3,1.17027,R,ugm-3,0.60,R,ugm-3,0.80,R,ugm-3
06-01-2019,14:00,1.90608,R,ugm-3,12.53288,R,ugm-3,15.45550,R,ugm-3,1.22879,R,ugm-3,1.80,R,ugm-3,2.10,R,ugm-3
06-01-2019,15:00,1.79819,R,ugm-3,13.16140,R,ugm-3,15.91859,R,ugm-3,0.87770,R,ugm-3,1.40,R,ugm-3,1.30,R,ugm-3
06-01-2019,16:00,1.61837,R,ugm-3,17.37335,R,ugm-3,19.85482,R,ugm-3,0.99473,R,ugm-3,1.60,R,ugm-3,1.10,R,ugm-3
06-01-2019,17:00,2.80518,R,ugm-3,18.73732,R,ugm-3,23.03853,R,ugm-3,0.87770,R,ugm-3,1.60,R,ugm-3,0.60,R,ugm-3
06-01-2019,18:00,1.69030,R,ugm-3,17.43672,R,ugm-3,20.02848,R,ugm-3,0.76068,R,ugm-3,1.30,R,ugm-3,0.90,R,ugm-3
06-01-2019,19:00,1.51048,R,ugm-3,12.90792,R,ugm-3,15.22396,R,ugm-3,0.76068,R,ugm-3,1.20,R,ugm-3,1.00,R,ugm-3
06-01-2019,20:00,1.33066,R,ugm-3,10.52089,R,ugm-3,12.56121,R,ugm-3,0.29257,R,ugm-3,1.20,R,ugm-3,0.90,R,ugm-3
06-01-2019,21:00,0.97102,R,ugm-3,9.45153,R,ugm-3,10.94041,R,ugm-3,0.29257,R,ugm-3,1.40,R,ugm-3,1.20,R,ugm-3
06-01-2019,22:00,1.18681,R,ugm-3,7.09466,R,ugm-3,8.91441,R,ugm-3,0.40960,R,ugm-3,1.10,R,ugm-3,0.70,R,ugm-3
06-01-2019,23:00,0.79121,R,ugm-3,4.92273,R,ugm-3,6.13589,R,ugm-3,0.23406,R,ugm-3,0.60,R,ugm-3,0.40,R,ugm-3
06-01-2019,24:00,0.35964,R,ugm-3,4.42674,R,ugm-3,4.97818,R,ugm-3,0.46811,R,ugm-3,0.60,R,ugm-3,0.20,R,ugm-3
07-01-2019,01:00,0.35983,R,ugm-3,3.73395,R,ugm-3,4.28568,R,ugm-3,0.87672,R,ugm-3,0.40,R,ugm-3,0.20,R,ugm-3
07-01-2019,02:00,0.38382,R,ugm-3,3.73578,R,ugm-3,4.32429,R,ugm-3,0.35069,R,ugm-3,0.30,R,ugm-3,0.10,R,ugm-3
07-01-2019,03:00,0.28787,R,ugm-3,2.04894,R,ugm-3,2.49033,R,ugm-3,0.58448,R,ugm-3,0.30,R,ugm-3,0.00,R,ugm-3
07-01-2019,04:00,0.28787,R,ugm-3,2.80183,R,ugm-3,3.24322,R,ugm-3,0.70137,R,ugm-3,0.20,R,ugm-3,0.10,R,ugm-3
07-01-2019,05:00,0.50377,R,ugm-3,3.22368,R,ugm-3,3.99611,R,ugm-3,0.93517,R,ugm-3,0.20,R,ugm-3,0.00,R,ugm-3
07-01-2019,06:00,0.71967,R,ugm-3,6.13586,R,ugm-3,7.23933,R,ugm-3,0.23379,R,ugm-3,0.20,R,ugm-3,0.00,R,ugm-3
07-01-2019,07:00,0.89958,R,ugm-3,6.20748,R,ugm-3,7.58682,R,ugm-3,0.46758,R,ugm-3,0.20,R,ugm-3,-0.10,R,ugm-3
07-01-2019,08:00,0.79163,R,ugm-3,4.28807,R,ugm-3,5.50189,R,ugm-3,0.70137,R,ugm-3,0.20,R,ugm-3,0.50,R,ugm-3
07-01-2019,09:00,1.07950,R,ugm-3,9.00109,R,ugm-3,10.65629,R,ugm-3,0.99361,R,ugm-3,0.30,R,ugm-3,0.30,R,ugm-3
07-01-2019,10:00,1.61924,R,ugm-3,10.77965,R,ugm-3,13.26245,R,ugm-3,0.70137,R,ugm-3,0.40,R,ugm-3,0.80,R,ugm-3
07-01-2019,11:00,1.07950,R,ugm-3,9.98564,R,ugm-3,11.64084,R,ugm-3,0.64293,R,ugm-3,0.70,R,ugm-3,0.10,R,ugm-3
07-01-2019,12:00,2.01506,R,ugm-3,8.02990,R,ugm-3,11.11961,R,ugm-3,0.52603,R,ugm-3,0.10,R,ugm-3,0.10,R,ugm-3
07-01-2019,13:00,1.58326,R,ugm-3,11.29814,R,ugm-3,13.72577,R,ugm-3,0.75982,R,ugm-3,0.20,R,ugm-3,0.10,R,ugm-3
07-01-2019,14:00,1.43933,R,ugm-3,10.18679,R,ugm-3,12.39373,R,ugm-3,1.16896,R,ugm-3,0.30,R,ugm-3,0.10,R,ugm-3
07-01-2019,15:00,0.93556,R,ugm-3,10.61173,R,ugm-3,12.04625,R,ugm-3,1.05206,R,ugm-3,0.30,R,ugm-3,0.20,R,ugm-3
07-01-2019,16:00,1.47531,R,ugm-3,13.89607,R,ugm-3,16.15818,R,ugm-3,0.99361,R,ugm-3,0.40,R,ugm-3,0.40,R,ugm-3
07-01-2019,17:00,1.07950,R,ugm-3,14.90838,R,ugm-3,16.56359,R,ugm-3,1.05206,R,ugm-3,0.50,R,ugm-3,0.50,R,ugm-3
07-01-2019,18:00,1.00753,R,ugm-3,16.98783,R,ugm-3,18.53268,R,ugm-3,0.87672,R,ugm-3,0.70,R,ugm-3,0.30,R,ugm-3
07-01-2019,19:00,0.93556,R,ugm-3,14.31827,R,ugm-3,15.75278,R,ugm-3,1.40275,R,ugm-3,0.50,R,ugm-3,0.40,R,ugm-3
07-01-2019,20:00,1.40335,R,ugm-3,14.46973,R,ugm-3,16.62150,R,ugm-3,1.34430,R,ugm-3,0.70,R,ugm-3,0.50,R,ugm-3
07-01-2019,21:00,1.36736,R,ugm-3,13.07704,R,ugm-3,15.17363,R,ugm-3,1.28585,R,ugm-3,0.50,R,ugm-3,0.40,R,ugm-3
07-01-2019,22:00,0.53975,R,ugm-3,3.74766,R,ugm-3,4.57526,R,ugm-3,0.93517,R,ugm-3,0.40,R,ugm-3,0.00,R,ugm-3
07-01-2019,23:00,0.53975,R,ugm-3,2.47353,R,ugm-3,3.30113,R,ugm-3,0.70137,R,ugm-3,0.10,R,ugm-3,0.10,R,ugm-3
07-01-2019,24:00,0.28787,R,ugm-3,1.35397,R,ugm-3,1.79535,R,ugm-3,0.70137,R,ugm-3,0.10,R,ugm-3,0.00,R,ugm-3
08-01-2019,01:00,0.19201,R,ugm-3,1.09623,R,ugm-3,1.39064,R,ugm-3,0.46706,R,ugm-3,0.00,R,ugm-3,0.00,R,ugm-3
08-01-2019,02:00,0.33602,R,ugm-3,0.87541,R,ugm-3,1.39064,R,ugm-3,0.58382,R,ugm-3,0.10,R,ugm-3,-0.10,R,ugm-3
08-01-2019,03:00,0.32402,R,ugm-3,0.66204,R,ugm-3,1.15887,R,ugm-3,0.81735,R,ugm-3,0.00,R,ugm-3,0.00,R,ugm-3
08-01-2019,04:00,0.43203,R,ugm-3,1.36558,R,ugm-3,2.02802,R,ugm-3,0.58382,R,ugm-3,0.10,R,ugm-3,-0.10,R,ugm-3
08-01-2019,05:00,0.43203,R,ugm-3,1.53942,R,ugm-3,2.20185,R,ugm-3,0.46706,R,ugm-3,0.00,R,ugm-3,0.00,R,ugm-3
08-01-2019,06:00,0.32402,R,ugm-3,1.29942,R,ugm-3,1.79625,R,ugm-3,0.46706,R,ugm-3,0.10,R,ugm-3,-0.10,R,ugm-3
08-01-2019,07:00,0.36003,R,ugm-3,3.15635,R,ugm-3,3.70838,R,ugm-3,0.05838,R,ugm-3,0.10,R,ugm-3,0.00,R,ugm-3
08-01-2019,08:00,0.86406,R,ugm-3,8.29375,R,ugm-3,9.61862,R,ugm-3,0.75897,R,ugm-3,0.20,R,ugm-3,0.00,R,ugm-3
08-01-2019,09:00,0.79206,R,ugm-3,12.63403,R,ugm-3,13.84850,R,ugm-3,0.81735,R,ugm-3,0.20,R,ugm-3,0.00,R,ugm-3
08-01-2019,10:00,1.80013,R,ugm-3,21.98172,R,ugm-3,24.74188,R,ugm-3,0.93411,R,ugm-3,0.80,R,ugm-3,0.30,R,ugm-3
08-01-2019,11:00,1.04408,R,ugm-3,10.91491,R,ugm-3,12.51580,R,ugm-3,0.52544,R,ugm-3,0.50,R,ugm-3,0.30,R,ugm-3
08-01-2019,12:00,1.80013,R,ugm-3,14.79672,R,ugm-3,17.55688,R,ugm-3,0.70059,R,ugm-3,0.90,R,ugm-3,0.80,R,ugm-3
08-01-2019,13:00,1.04408,R,ugm-3,6.74297,R,ugm-3,8.34387,R,ugm-3,0.70059,R,ugm-3,0.40,R,ugm-3,0.20,R,ugm-3
08-01-2019,14:00,0.57604,R,ugm-3,4.44755,R,ugm-3,5.33080,R,ugm-3,0.64220,R,ugm-3,0.40,R,ugm-3,0.30,R,ugm-3
08-01-2019,15:00,1.90814,R,ugm-3,5.59193,R,ugm-3,8.51770,R,ugm-3,0.70059,R,ugm-3,0.40,R,ugm-3,0.20,R,ugm-3
08-01-2019,16:00,1.18808,R,ugm-3,10.40438,R,ugm-3,12.22608,R,ugm-3,1.40117,R,ugm-3,0.50,R,ugm-3,0.30,R,ugm-3
08-01-2019,17:00,1.15208,R,ugm-3,21.81651,R,ugm-3,23.58301,R,ugm-3,1.51793,R,ugm-3,1.50,R,ugm-3,1.40,R,ugm-3
08-01-2019,18:00,37.37067,R,ugm-3,83.21210,R,ugm-3,140.51300,R,ugm-3,2.62719,R,ugm-3,3.80,R,ugm-3,3.60,R,ugm-3
08-01-2019,19:00,20.34145,R,ugm-3,73.91972,R,ugm-3,105.10952,R,ugm-3,2.51043,R,ugm-3,2.90,R,ugm-3,1.40,R,ugm-3
08-01-2019,20:00,21.09751,R,ugm-3,65.40163,R,ugm-3,97.75069,R,ugm-3,2.86072,R,ugm-3,3.40,R,ugm-3,2.10,R,ugm-3
08-01-2019,21:00,2.26816,R,ugm-3,27.98552,R,ugm-3,31.46332,R,ugm-3,2.45205,R,ugm-3,2.30,R,ugm-3,2.70,R,ugm-3
08-01-2019,22:00,4.78834,R,ugm-3,34.14553,R,ugm-3,41.48755,R,ugm-3,2.39367,R,ugm-3,2.10,R,ugm-3,2.40,R,ugm-3
08-01-2019,23:00,7.77656,R,ugm-3,52.97284,R,ugm-3,64.89673,R,ugm-3,2.39367,R,ugm-3,3.10,R,ugm-3,2.00,R,ugm-3
08-01-2019,24:00,3.27623,R,ugm-3,33.79866,R,ugm-3,38.82215,R,ugm-3,2.17960,R,ugm-3,2.00,R,ugm-3,1.30,R,ugm-3
09-01-2019,01:00,0.28818,R,ugm-3,6.66942,R,ugm-3,7.11128,R,ugm-3,1.69118,R,ugm-3,1.00,R,ugm-3,0.30,R,ugm-3
09-01-2019,02:00,0.67241,R,ugm-3,10.40887,R,ugm-3,11.43988,R,ugm-3,0.93306,R,ugm-3,0.80,R,ugm-3,0.60,R,ugm-3
09-01-2019,03:00,1.36883,R,ugm-3,11.11885,R,ugm-3,13.21770,R,ugm-3,0.93306,R,ugm-3,0.60,R,ugm-3,0.40,R,ugm-3
09-01-2019,04:00,1.98121,R,ugm-3,17.54239,R,ugm-3,20.58019,R,ugm-3,0.64148,R,ugm-3,0.50,R,ugm-3,0.30,R,ugm-3
09-01-2019,05:00,6.12373,R,ugm-3,21.97347,R,ugm-3,31.36306,R,ugm-3,0.69980,R,ugm-3,0.60,R,ugm-3,0.40,R,ugm-3
09-01-2019,06:00,7.67267,R,ugm-3,24.70002,R,ugm-3,36.46462,R,ugm-3,0.52485,R,ugm-3,0.60,R,ugm-3,0.20,R,ugm-3
09-01-2019,07:00,54.57324,R,ugm-3,50.93405,R,ugm-3,134.61185,R,ugm-3,0.87474,R,ugm-3,1.20,R,ugm-3,1.00,R,ugm-3
09-01-2019,08:00,102.62651,R,ugm-3,74.00928,R,ugm-3,231.36774,R,ugm-3,2.79918,R,ugm-3,2.80,R,ugm-3,0.40,R,ugm-3
09-01-2019,09:00,146.75339,R,ugm-3,89.13356,R,ugm-3,314.15229,R,ugm-3,3.32403,R,ugm-3,3.00,R,ugm-3,0.60,R,ugm-3
09-01-2019,10:00,102.84265,R,ugm-3,64.86609,R,ugm-3,222.55594,R,ugm-3,3.73225,R,ugm-3,2.50,R,ugm-3,0.50,R,ugm-3
09-01-2019,11:00,76.90685,R,ugm-3,53.44415,R,ugm-3,171.36634,R,ugm-3,2.62424,R,ugm-3,2.90,R,ugm-3,1.50,R,ugm-3
09-01-2019,12:00,46.18013,R,ugm-3,46.35362,R,ugm-3,117.16217,R,ugm-3,1.98276,R,ugm-3,2.50,R,ugm-3,0.80,R,ugm-3
09-01-2019,13:00,15.48944,R,ugm-3,40.30934,R,ugm-3,64.05947,R,ugm-3,1.10801,R,ugm-3,1.70,R,ugm-3,1.10,R,ugm-3
09-01-2019,14:00,41.06501,R,ugm-3,57.79098,R,ugm-3,120.75646,R,ugm-3,1.51623,R,ugm-3,3.20,R,ugm-3,1.90,R,ugm-3
09-01-2019,15:00,48.26940,R,ugm-3,59.38238,R,ugm-3,133.39443,R,ugm-3,2.15771,R,ugm-3,3.20,R,ugm-3,1.20,R,ugm-3
09-01-2019,16:00,47.00863,R,ugm-3,60.44595,R,ugm-3,132.52485,R,ugm-3,2.04107,R,ugm-3,3.70,R,ugm-3,2.60,R,ugm-3
09-01-2019,17:00,48.01725,R,ugm-3,58.95740,R,ugm-3,132.58282,R,ugm-3,2.39097,R,ugm-3,4.80,R,ugm-3,2.30,R,ugm-3
09-01-2019,18:00,64.65939,R,ugm-3,74.19439,R,ugm-3,173.33740,R,ugm-3,2.21602,R,ugm-3,4.10,R,ugm-3,1.20,R,ugm-3
09-01-2019,19:00,41.96556,R,ugm-3,51.54048,R,ugm-3,115.88678,R,ugm-3,2.39097,R,ugm-3,4.20,R,ugm-3,1.90,R,ugm-3
09-01-2019,20:00,19.16367,R,ugm-3,51.95135,R,ugm-3,81.33524,R,ugm-3,1.34128,R,ugm-3,3.30,R,ugm-3,1.30,R,ugm-3
09-01-2019,21:00,10.91465,R,ugm-3,44.77313,R,ugm-3,61.50869,R,ugm-3,1.04970,R,ugm-3,3.40,R,ugm-3,1.70,R,ugm-3
09-01-2019,22:00,8.17698,R,ugm-3,40.15903,R,ugm-3,52.69689,R,ugm-3,0.81643,R,ugm-3,1.70,R,ugm-3,0.70,R,ugm-3
09-01-2019,23:00,2.70165,R,ugm-3,28.09018,R,ugm-3,32.23264,R,ugm-3,0.17495,R,ugm-3,1.40,R,ugm-3,0.50,R,ugm-3
09-01-2019,24:00,2.66562,R,ugm-3,24.60909,R,ugm-3,28.69632,R,ugm-3,0.23327,R,ugm-3,1.70,R,ugm-3,0.60,R,ugm-3
10-01-2019,01:00,2.48685,R,ugm-3,22.28744,R,ugm-3,26.10056,R,ugm-3,0.69901,R,ugm-3,1.90,R,ugm-3,0.80,R,ugm-3